{"data":{"norad_id":56713,"intl_designator":"2023-068D","name":"ONEWEB-0677","alt_names":[],"object_type":"PAYLOAD","status":"ACTIVE","operator":null,"country":"UK","launch_date":"2023-05-20","launch_site_code":"AFWTR","launch_vehicle":null,"mission":null,"orbit_class":"UNKNOWN","rcs_meters":null,"size_class":null,"mass_kg":null,"dimensions":null,"purposes":["comms"],"wikipedia_slug":null,"has_3d_model":false,"image_url":null,"decayed_at":null,"tle_current":{"epoch":"2026-05-25T01:55:16.870368Z","epoch_age_seconds":62050,"freshness":"FRESH","line1":"1 56713U 23068D   26145.08005637  .00000059  00000+0  11373-3 0  9999","line2":"2 56713  87.9172 279.0417 0002311 101.2836 258.8557 13.20772352146751","mean_motion":13.20772352,"eccentricity":0.0002311,"inclination_deg":87.9172,"raan_deg":279.0417,"arg_perigee_deg":101.2836,"mean_anomaly_deg":258.8557,"bstar":0.00011373,"rev_number":14675,"period_min":109.0271156736,"perigee_km":1180.0242208941,"apogee_km":1183.5184105176,"semimajor_km":7559.9083157059,"source":"CELESTRAK","updated_at":"2026-05-25T13:38:22.708712Z"}}}